HST 1 20580U 90037B 09006.22217519 .00000330 00000-0 12713-4 0 2995 2 20580 028.4695 078.9162 0003402 022.5106 337.5637 15.00444770825505 ISS (ZARYA) 1 25544U 98067A 09006.52567200 .00012730 00000-0 99439-4 0 130 2 25544 051.6428 054.4350 0007000 165.8125 336.8270 15.72052661580528 CXO 1 25867U 99040B 09005.20833333 +.00000266 +00000-0 +10000-3 0 02811 2 25867 064.7098 074.6722 7215150 276.9750 001.0199 00.37808922004394